• En Colombia
  • Lista de países
  • Para 7 días
  • Temperatura del agua
  • El tiempo en el mapa
  • Informadores
  • user-avatar
    Iniciar sesión

    Tiempo cada hora Batina

    Hoy, 23 Febrero, Domingo

    Tiempo Temperatura Precipitaciones Viento Presión Humedad
    00:00 +7°C° 0 mm 1 mps 679 mmHg 76%
    01:00 +6°C° 0 mm 1 mps 679 mmHg 70%
    02:00 +6°C° 0 mm 1 mps 678 mmHg 65%
    03:00 +5°C° 0 mm 0 mps 678 mmHg 59%
    04:00 +6°C° 0 mm 1 mps 678 mmHg 59%
    05:00 +5°C° 0 mm 1 mps 678 mmHg 59%
    06:00 +5°C° 0 mm 1 mps 679 mmHg 59%
    07:00 +7°C° 0 mm 1 mps 679 mmHg 53%
    08:00 +8°C° 0 mm 2 mps 680 mmHg 48%
    09:00 +10°C° 0 mm 2 mps 681 mmHg 42%
    10:00 +13°C° 0 mm 2 mps 681 mmHg 38%
    11:00 +14°C° 0 mm 2 mps 681 mmHg 35%
    12:00 +15°C° 0 mm 2 mps 681 mmHg 31%
    13:00 +16°C° 0 mm 2 mps 681 mmHg 30%
    14:00 +16°C° 0 mm 2 mps 681 mmHg 29%
    15:00 +17°C° 0 mm 2 mps 680 mmHg 28%
    16:00 +15°C° 0 mm 2 mps 680 mmHg 34%
    17:00 +13°C° 0 mm 1 mps 679 mmHg 41%
    18:00 +11°C° 0 mm 1 mps 679 mmHg 47%
    19:00 +11°C° 0 mm 1 mps 679 mmHg 48%
    20:00 +10°C° 0 mm 1 mps 679 mmHg 49%
    21:00 +9°C° 0 mm 0 mps 679 mmHg 50%
    22:00 +8°C° 0 mm 0 mps 678 mmHg 50%
    23:00 +8°C° 0 mm 0 mps 678 mmHg 51%

    Mañana, 24 Febrero, Lunes

    Tiempo Temperatura Precipitaciones Viento Presión Humedad
    00:00 +7°C° 0 mm 0 mps 678 mmHg 51%
    01:00 +7°C° 0 mm 0 mps 677 mmHg 50%
    02:00 +8°C° 0 mm 1 mps 677 mmHg 50%
    03:00 +8°C° 0 mm 1 mps 676 mmHg 49%
    04:00 +7°C° 0 mm 1 mps 676 mmHg 50%
    05:00 +7°C° 0 mm 1 mps 676 mmHg 51%
    06:00 +7°C° 0 mm 1 mps 676 mmHg 52%
    07:00 +9°C° 0 mm 1 mps 677 mmHg 45%
    08:00 +12°C° 0 mm 1 mps 678 mmHg 38%
    09:00 +15°C° 0 mm 1 mps 679 mmHg 31%
    10:00 +16°C° 0 mm 1 mps 678 mmHg 28%
    11:00 +18°C° 0 mm 1 mps 678 mmHg 26%
    12:00 +18°C° 0 mm 2 mps 678 mmHg 24%
    13:00 +18°C° 0 mm 2 mps 678 mmHg 23%
    14:00 +19°C° 0 mm 2 mps 677 mmHg 23%
    15:00 +19°C° 0 mm 2 mps 677 mmHg 23%
    16:00 +17°C° 0 mm 2 mps 676 mmHg 30%
    17:00 +15°C° 0 mm 1 mps 676 mmHg 36%
    18:00 +13°C° 0 mm 1 mps 675 mmHg 42%
    19:00 +13°C° 0 mm 1 mps 675 mmHg 44%
    20:00 +11°C° 0 mm 0 mps 675 mmHg 47%
    21:00 +10°C° 0 mm 0 mps 674 mmHg 49%
    22:00 +10°C° 0 mm 0 mps 674 mmHg 49%
    23:00 +10°C° 0 mm 1 mps 674 mmHg 48%

    Pasado mañana, 25 Febrero, Martes

    Tiempo Temperatura Precipitaciones Viento Presión Humedad
    00:00 +10°C° 0 mm 1 mps 673 mmHg 48%
    01:00 +10°C° 0 mm 1 mps 673 mmHg 48%
    02:00 +10°C° 0 mm 1 mps 672 mmHg 47%
    03:00 +8°C° 0 mm 2 mps 672 mmHg 46%
    04:00 +8°C° 0 mm 2 mps 672 mmHg 46%
    05:00 +8°C° 0 mm 2 mps 672 mmHg 46%
    06:00 +7°C° 0 mm 2 mps 671 mmHg 46%
    07:00 +10°C° 0 mm 2 mps 672 mmHg 40%
    08:00 +13°C° 0 mm 2 mps 673 mmHg 35%
    09:00 +16°C° 0 mm 2 mps 674 mmHg 30%
    10:00 +17°C° 0 mm 3 mps 674 mmHg 27%
    11:00 +18°C° 0 mm 4 mps 673 mmHg 25%
    12:00 +19°C° 0 mm 4 mps 673 mmHg 22%
    13:00 +19°C° 0 mm 5 mps 673 mmHg 23%
    14:00 +17°C° 0 mm 5 mps 672 mmHg 24%
    15:00 +17°C° 0 mm 5 mps 672 mmHg 25%
    16:00 +15°C° 0 mm 4 mps 671 mmHg 29%
    17:00 +14°C° 0 mm 4 mps 671 mmHg 33%
    18:00 +12°C° 0 mm 3 mps 670 mmHg 38%
    19:00 +11°C° 0 mm 3 mps 670 mmHg 38%
    20:00 +12°C° 0 mm 2 mps 670 mmHg 39%
    21:00 +10°C° 0 mm 2 mps 670 mmHg 40%
    22:00 +10°C° 0 mm 2 mps 670 mmHg 43%
    23:00 +9°C° 0 mm 2 mps 670 mmHg 46%

    26 Febrero, Miércoles

    Tiempo Temperatura Precipitaciones Viento Presión Humedad
    00:00 +9°C° 0 mm 1 mps 669 mmHg 50%
    01:00 +9°C° 0 mm 1 mps 669 mmHg 52%
    02:00 +9°C° 0 mm 1 mps 668 mmHg 55%
    03:00 +8°C° 0 mm 1 mps 668 mmHg 58%
    04:00 +8°C° 0 mm 1 mps 668 mmHg 59%
    05:00 +8°C° 0 mm 1 mps 668 mmHg 61%
    06:00 +7°C° 0 mm 2 mps 668 mmHg 62%
    07:00 +8°C° 0 mm 2 mps 668 mmHg 57%
    08:00 +10°C° 0 mm 3 mps 669 mmHg 52%
    09:00 +12°C° 0 mm 3 mps 670 mmHg 47%
    10:00 +13°C° 0 mm 4 mps 670 mmHg 45%
    11:00 +13°C° 0 mm 4 mps 670 mmHg 44%
    12:00 +14°C° 0 mm 5 mps 670 mmHg 43%
    13:00 +14°C° 0 mm 5 mps 670 mmHg 41%
    14:00 +14°C° 0 mm 5 mps 670 mmHg 39%
    15:00 +14°C° 0 mm 6 mps 670 mmHg 37%
    16:00 +13°C° 0 mm 5 mps 670 mmHg 44%
    17:00 +11°C° 0 mm 4 mps 669 mmHg 51%
    18:00 +10°C° 0 mm 3 mps 669 mmHg 59%
    19:00 +9°C° 0 mm 2 mps 670 mmHg 63%
    20:00 +8°C° 0 mm 2 mps 670 mmHg 67%
    21:00 +9°C° 0 mm 1 mps 670 mmHg 72%
    22:00 +7°C° 0 mm 2 mps 670 mmHg 76%
    23:00 +7°C° 0 mm 2 mps 670 mmHg 80%

    27 Febrero, Jueves

    Tiempo Temperatura Precipitaciones Viento Presión Humedad
    00:00 +6°C° 0 mm 2 mps 670 mmHg 84%
    01:00 +5°C° 0 mm 2 mps 670 mmHg 81%
    02:00 +5°C° 0 mm 2 mps 670 mmHg 79%
    03:00 +4°C° 0 mm 2 mps 670 mmHg 76%
    04:00 +4°C° 0 mm 2 mps 670 mmHg 74%
    05:00 +4°C° 0 mm 2 mps 670 mmHg 73%
    06:00 +4°C° 0 mm 2 mps 670 mmHg 71%
    07:00 +5°C° 0 mm 2 mps 671 mmHg 62%
    08:00 +8°C° 0 mm 1 mps 672 mmHg 52%
    09:00 +10°C° 0 mm 1 mps 673 mmHg 43%
    10:00 +10°C° 0 mm 2 mps 673 mmHg 41%
    11:00 +11°C° 0 mm 3 mps 673 mmHg 38%
    12:00 +13°C° 0 mm 4 mps 674 mmHg 36%
    13:00 +13°C° 0 mm 4 mps 673 mmHg 36%
    14:00 +13°C° 0 mm 4 mps 673 mmHg 36%
    15:00 +13°C° 0 mm 4 mps 673 mmHg 36%
    16:00 +12°C° 0 mm 4 mps 673 mmHg 40%
    17:00 +11°C° 0 mm 3 mps 672 mmHg 45%
    18:00 +10°C° 0 mm 3 mps 672 mmHg 49%
    19:00 +9°C° 0 mm 3 mps 672 mmHg 51%
    20:00 +9°C° 0 mm 2 mps 673 mmHg 53%
    21:00 +8°C° 0 mm 2 mps 673 mmHg 55%
    22:00 +8°C° 0 mm 2 mps 673 mmHg 56%
    23:00 +8°C° 0 mm 2 mps 673 mmHg 56%

    28 Febrero, Viernes

    Tiempo Temperatura Precipitaciones Viento Presión Humedad
    00:00 +7°C° 0 mm 2 mps 672 mmHg 57%
    01:00 +7°C° 0 mm 2 mps 672 mmHg 57%
    02:00 +7°C° 0 mm 2 mps 672 mmHg 57%
    03:00 +6°C° 0 mm 2 mps 672 mmHg 57%
    04:00 +6°C° 0 mm 2 mps 671 mmHg 56%
    05:00 +6°C° 0 mm 2 mps 671 mmHg 56%
    06:00 +6°C° 0 mm 2 mps 671 mmHg 55%
    07:00 +8°C° 0 mm 3 mps 672 mmHg 50%
    08:00 +10°C° 0 mm 3 mps 673 mmHg 44%
    09:00 +13°C° 0 mm 4 mps 674 mmHg 39%
    10:00 +14°C° 0 mm 4 mps 674 mmHg 36%
    11:00 +15°C° 0 mm 5 mps 674 mmHg 34%
    12:00 +16°C° 0 mm 6 mps 673 mmHg 32%
    13:00 +16°C° 0 mm 6 mps 673 mmHg 33%
    14:00 +16°C° 0 mm 6 mps 672 mmHg 34%
    15:00 +16°C° 0 mm 6 mps 672 mmHg 35%
    16:00 +14°C° 0 mm 5 mps 671 mmHg 40%
    17:00 +13°C° 0 mm 4 mps 671 mmHg 46%
    18:00 +11°C° 0 mm 3 mps 670 mmHg 51%
    19:00 +11°C° 0 mm 3 mps 670 mmHg 51%
    20:00 +11°C° 0 mm 3 mps 670 mmHg 50%
    21:00 +10°C° 0 mm 3 mps 670 mmHg 50%
    22:00 +10°C° 0 mm 3 mps 670 mmHg 49%
    23:00 +10°C° 0 mm 4 mps 670 mmHg 48%
    Mostrar más